Location: Azul
(36.7830°S, 59.8500°W)
Time: 03:43:02
(UTC-03:00)

Tiangong - Pass Details

Date: 09 December 2023
Orbit: 380 x 385 km, 41.5° (Epoch: 14 June)

Event Time Altitude Azimuth Distance (km) Brightness Sun altitude
Rises 21:46:30 0° 295° (WNW) 2,305 2.1 -16.1°
Reaches altitude 10° 21:48:36 10° 296° (WNW) 1,443 1.0 -16.4°
Maximum altitude 21:51:51 81° 23° (NNE) 404 -2.2 -16.8°
Enters shadow 21:53:28 27° 108° (ESE) 792 -0.8 -17.0°
